sat.trackr.live / text

‹ back to catalog

GSAT-10 (GAGAN/PRN 128)

NORAD 38779 · 2012-051B

PAYLOAD ACTIVE UNKNOWN

§ Identity

Operator
Country
IND
Launch date
2012-09-28
Launch site
FRGUI
Launch vehicle
Mass (kg)
RCS (m²)
13.85

Purposes: comms, nav

External: N2YO · Heavens-Above · Gunter

§ Orbital elements

Epoch: 2026-05-25T04:08:07.507968Z

Period
1,436.08 min
Inclination
0.0447°
Eccentricity
0.0007634
Mean motion
1.00273150 rev/d
Perigee alt
35,754.0 km
Apogee alt
35,818.4 km
Semi-major
42,164.3 km
B*
0.0000e+0
RAAN
261.3571°
Arg perigee
182.5825°
Mean anomaly
303.8353°
Rev number
4,986

§ Raw data

GSAT-10 (GAGAN/PRN 128)1 38779U 12051B   26145.17230912 -.00000167  00000+0  00000+0 0  99992 38779   0.0447 261.3571 0007634 182.5825 303.8353  1.00273150 49868

JSON: /api/v1/satellites/38779 · /tle

For live sub-satellite position, see the globe view (requires WebGL).

§ Visibility from observer

Set your observer location to see the next 7 days of passes ≥ 10°. The values pass through the URL so the page stays shareable.

No JS? Fill the form by hand. The geolocation button needs JavaScript.